GW4005 Weather Reports


Display with metric or nautical units.
time (UTC)temp
F
wind
direction
speed
MPH
gust
MPH
rain 1hr
in
rain 24hr
in
rain mn
in
humidity
%
barometer
mb
20260504222014 52 184 7.0 22.0 0.00 0.20 0.00 65 1005.1
20260504221536 51 243 9.0 22.0 0.00 0.20 0.00 66 1005.1
20260504221014 51 183 8.0 18.0 0.00 0.20 0.00 67 1005.2
20260504220514 50 205 8.0 19.0 0.00 0.20 0.00 69 1005.1
20260504220045 50 253 7.0 19.0 0.00 0.20 0.00 70 1005.2
20260504215518 49 167 9.0 19.0 0.00 0.31 0.00 71 1005.1
20260504215017 49 178 7.0 17.0 0.00 0.31 0.00 72 1005.2
20260504214536 49 202 7.0 17.0 0.00 0.31 0.00 72 1005.3
20260504214014 49 199 6.0 15.0 0.00 0.31 0.00 71 1005.4
20260504213514 49 168 7.0 17.0 0.00 0.31 0.00 71 1005.4
20260504213041 50 191 7.0 19.0 0.00 0.31 0.00 70 1005.4
20260504212514 50 181 8.0 19.0 0.00 0.31 0.00 69 1005.3
20260504212017 50 236 8.0 21.0 0.00 0.31 0.00 67 1005.2
20260504211539 51 199 10.0 22.0 0.00 0.31 0.00 66 1005.4
20260504211014 51 210 9.0 23.0 0.00 0.31 0.00 65 1005.4
20260504210516 51 162 9.0 23.0 0.00 0.31 0.00 65 1005.5
20260504210033 51 171 9.0 29.0 0.00 0.31 0.00 65 1005.2
20260504205515 51 247 11.0 29.0 0.00 0.38 0.00 65 1005.1
20260504205014 51 238 12.0 27.0 0.00 0.38 0.00 65 1005.1
20260504204540 51 135 10.0 27.0 0.00 0.38 0.00 67 1005.1
20260504204015 51 199 11.0 31.0 0.00 0.38 0.00 68 1005.0
20260504203517 50 212 13.0 31.0 0.00 0.38 0.00 69 1005.0
20260504203033 49 250 10.0 27.0 0.00 0.38 0.00 72 1005.0
20260504202516 48 203 10.0 27.0 0.00 0.38 0.00 74 1005.0
20260504202015 47 176 11.0 26.0 0.00 0.38 0.00 76 1005.1
20260504201533 48 214 12.0 25.0 0.00 0.38 0.00 74 1005.2
20260504201014 49 219 10.0 24.0 0.00 0.38 0.00 73 1005.1
20260504200514 48 198 13.0 24.0 0.00 0.38 0.00 76 1005.1
20260504200033 47 254 8.0 24.0 0.00 0.38 0.00 77 1005.0
20260504195514 48 208 7.0 20.0 0.00 0.48 0.00 76 1005.2
20260504195015 48 256 7.0 26.0 0.00 0.48 0.00 76 1005.1
20260504194532 48 256 9.0 26.0 0.00 0.48 0.00 76 1005.0
20260504194015 48 231 8.0 22.0 0.00 0.48 0.00 76 1004.9
20260504193515 47 192 10.0 18.0 0.00 0.48 0.00 75 1004.8
20260504193031 48 175 10.0 21.0 0.00 0.48 0.00 75 1004.8
20260504192514 48 218 8.0 21.0 0.00 0.48 0.00 73 1004.8
20260504192014 49 194 10.0 19.0 0.00 0.48 0.00 73 1004.7
20260504191535 50 220 9.0 19.0 0.00 0.48 0.00 72 1004.7
20260504191014 50 137 8.0 19.0 0.00 0.48 0.00 73 1004.8
20260504190518 49 233 7.0 18.0 0.00 0.48 0.00 73 1004.6
20260504190034 48 225 8.0 16.0 0.00 0.48 0.00 72 1004.7
20260504185515 48 240 8.0 20.0 0.00 0.56 0.00 72 1004.7
20260504185019 48 179 8.0 20.0 0.00 0.56 0.00 71 1004.7
20260504184530 49 216 8.0 18.0 0.00 0.56 0.00 69 1004.8
20260504184017 50 231 7.0 18.0 0.00 0.56 0.00 68 1004.8
20260504183516 50 184 8.0 19.0 0.00 0.56 0.00 68 1004.9
20260504183036 50 106 8.0 19.0 0.00 0.56 0.00 67 1004.9
20260504182514 50 258 9.0 23.0 0.00 0.56 0.00 69 1004.9
20260504182016 49 232 10.0 23.0 0.00 0.56 0.00 68 1004.9
20260504181535 50 178 8.0 23.0 0.00 0.56 0.00 68 1005.0
20260504181015 50 218 6.0 20.0 0.00 0.56 0.00 67 1005.0
20260504180514 49 249 7.0 20.0 0.00 0.56 0.00 67 1005.0
20260504180045 49 191 9.0 20.0 0.00 0.56 0.00 67 1004.9
20260504175517 49 206 7.0 19.0 0.00 0.73 0.00 69 1005.0
20260504175017 49 205 7.0 20.0 0.00 0.73 0.00 70 1005.0
20260504174531 49 187 7.0 23.0 0.00 0.73 0.00 71 1005.0
20260504174014 48 210 9.0 23.0 0.00 0.73 0.00 71 1005.1
20260504173514 48 197 10.0 20.0 0.00 0.73 0.00 71 1005.0
20260504173032 48 179 9.0 20.0 0.00 0.73 0.00 70 1005.0
20260504172514 48 215 7.0 20.0 0.00 0.73 0.00 70 1005.0
20260504172019 49 243 8.0 21.0 0.00 0.73 0.00 70 1005.0
20260504171530 48 119 8.0 22.0 0.00 0.73 0.00 68 1005.1
20260504171017 48 286 10.0 22.0 0.00 0.73 0.00 68 1005.1
20260504170515 48 200 8.0 19.0 0.00 0.73 0.00 68 1005.1
20260504151016 46 216 10.0 25.0 0.00 1.31 0.00 76 1005.6
20260504150517 46 202 9.0 20.0 0.00 1.31 0.00 76 1005.6
20260504141015 44 213 10.0 23.0 0.00 1.38 0.00 75 1005.8
20260504140516 44 200 8.0 23.0 0.00 1.38 0.00 76 1005.8
20260504130516 42 206 11.0 23.0 0.00 1.38 0.00 80 1005.1
20260504110516 40 186 8.0 24.0 0.00 1.38 0.00 86 1003.2
20260504100514 40 239 7.0 21.0 0.00 1.38 0.00 89 1002.4
20260504081609 40 320 6.0 14.0 0.00 1.38 0.00 91 999.8
20260504081015 40 197 4.0 15.0 0.00 1.38 0.00 91 999.8
20260504080514 40 198 6.0 15.0 0.00 1.38 0.00 91 999.8
20260504050515 39 307 10.0 23.0 0.00 1.38 0.00 92 997.5
20260504045515 39 283 14.0 24.0 0.00 1.38 0.00 92 997.3
20260504045015 39 288 14.0 23.0 0.00 1.38 0.00 92 997.2
20260504044537 39 279 14.0 24.0 0.00 1.38 0.00 92 997.1
20260504044017 39 283 15.0 24.0 0.00 1.38 0.00 91 997.1
20260504043515 38 333 14.0 24.0 0.00 1.38 0.00 92 996.9
20260504043041 38 288 14.0 24.0 0.00 1.38 0.00 91 996.8
20260504042516 38 306 11.0 26.0 0.00 1.38 0.00 91 996.8
20260504042017 38 328 14.0 26.0 0.00 1.38 0.00 91 996.7
20260504041532 38 319 14.0 25.0 0.00 1.38 0.00 91 996.7
20260504041015 38 329 12.0 25.0 0.00 1.38 0.00 91 996.6
20260504040515 38 307 11.0 28.0 0.00 1.38 0.00 91 996.6
20260504040029 38 320 12.0 28.0 0.00 1.38 0.00 91 996.6
20260504035516 38 316 11.0 23.0 0.00 1.38 0.00 91 996.5
20260504035015 38 316 11.0 23.0 0.00 1.38 0.00 91 996.5
20260504034531 38 308 11.0 25.0 0.00 1.38 0.00 91 996.4
20260504034014 38 342 11.0 26.0 0.00 1.38 0.00 91 996.3
20260504033517 38 4 12.0 26.0 0.00 1.38 0.00 91 996.1
20260504033030 38 358 11.0 26.0 0.00 1.38 0.00 91 996.1
20260504032517 38 339 12.0 26.0 0.00 1.38 0.00 91 996.1
20260504032015 38 354 13.0 25.0 0.00 1.38 0.00 91 996.0
20260504031530 38 348 12.0 23.0 0.00 1.38 0.00 91 995.9
20260504031015 38 318 13.0 23.0 0.00 1.38 0.00 91 995.8
20260504030514 38 341 12.0 23.0 0.00 1.38 0.00 91 995.6
20260504030030 38 335 13.0 23.0 0.00 1.38 0.00 91 995.5
20260504025515 38 339 12.0 20.0 0.00 1.38 1.38 91 995.5
20260504025015 38 352 13.0 23.0 0.00 1.38 1.38 91 995.4
20260504024532 38 343 12.0 25.0 0.00 1.38 1.38 91 995.4
20260504024014 38 355 16.0 25.0 0.00 1.38 1.38 91 995.2
20260504023514 38 330 13.0 25.0 0.00 1.38 1.38 92 995.1
20260504023029 38 23 12.0 26.0 0.00 1.38 1.38 91 995.0
20260504022514 38 329 14.0 27.0 0.00 1.38 1.38 91 995.0
20260504022019 38 356 16.0 34.0 0.00 1.38 1.38 91 994.8
20260504021536 37 4 17.0 34.0 0.00 1.38 1.38 91 994.8
20260504021017 37 355 16.0 28.0 0.00 1.38 1.38 91 994.7
20260504020515 37 340 17.0 28.0 0.00 1.38 1.38 91 994.6
20260504020037 37 322 16.0 26.0 0.00 1.38 1.38 91 994.4
20260504015517 38 21 16.0 27.0 0.00 1.38 1.38 91 994.4
20260504015015 38 5 17.0 27.0 0.00 1.38 1.38 91 994.3
20260504014537 38 15 16.0 27.0 0.00 1.38 1.38 91 994.2
20260504014014 38 8 16.0 32.0 0.00 1.38 1.38 91 994.2
20260504013517 38 352 19.0 34.0 0.00 1.38 1.38 91 994.1
20260504013031 38 34 19.0 34.0 0.00 1.38 1.38 91 994.0
20260504012516 38 15 20.0 35.0 0.00 1.38 1.38 91 993.9
20260504012015 37 25 20.0 35.0 0.00 1.38 1.38 91 993.8
20260504011534 37 14 21.0 41.0 0.00 1.38 1.38 91 993.7
20260504011014 37 15 23.0 41.0 0.00 1.38 1.38 92 993.6
20260504010516 37 29 22.0 41.0 0.01 1.38 1.38 92 993.6
20260504010029 37 274 23.0 34.0 0.01 1.38 1.38 92 993.6
20260504005514 37 37 23.0 34.0 0.01 1.38 1.38 92 993.4
20260504005015 36 341 21.0 34.0 0.01 1.38 1.38 92 993.4
20260504004534 36 7 19.0 38.0 0.01 1.38 1.38 92 993.4
20260504004014 36 8 20.0 40.0 0.01 1.38 1.38 92 993.4
20260504003516 36 10 18.0 40.0 0.01 1.38 1.38 92 993.2
20260504003030 37 33 18.0 34.0 0.01 1.38 1.38 92 993.2
20260504002517 37 6 14.0 34.0 0.02 1.38 1.38 92 993.1
20260504002017 37 11 18.0 33.0 0.03 1.38 1.38 92 993.0
20260504001535 37 33 16.0 29.0 0.04 1.38 1.38 92 993.0
20260504001015 37 340 18.0 32.0 0.04 1.37 1.37 92 993.0
20260504000514 37 42 19.0 32.0 0.05 1.37 1.37 92 992.9
20260504000032 37 23 17.0 32.0 0.06 1.37 1.37 92 992.9
20260503235519 37 31 17.0 28.0 0.06 1.37 1.37 92 992.9
20260503235016 37 54 17.0 27.0 0.06 1.37 1.37 92 992.8
20260503234530 37 56 16.0 31.0 0.07 1.37 1.37 93 992.8
20260503234016 36 37 16.0 31.0 0.09 1.37 1.37 92 992.8
20260503233516 36 360 16.0 31.0 0.11 1.37 1.37 92 992.8
20260503233033 37 341 16.0 31.0 0.13 1.37 1.37 92 992.6
20260503232515 37 58 16.0 31.0 0.14 1.36 1.36 92 992.5
20260503232015 37 22 15.0 28.0 0.14 1.35 1.35 92 992.5
20260503231533 37 16 14.0 28.0 0.14 1.34 1.34 92 992.5
20260503231017 37 56 13.0 33.0 0.14 1.33 1.33 92 992.5
20260503230519 38 7 13.0 34.0 0.13 1.31 1.31 92 992.5
20260503230030 39 55 24.0 34.0 0.13 1.31 1.31 93 992.4
20260503225514 39 52 25.0 34.0 0.14 1.31 1.31 93 992.5
20260503225020 39 59 25.0 34.0 0.15 1.31 1.31 92 992.4
20260503224530 39 83 23.0 36.0 0.13 1.29 1.29 92 992.2
20260503224016 39 48 23.0 36.0 0.13 1.28 1.28 92 992.3
20260503223516 39 56 24.0 38.0 0.12 1.26 1.26 92 992.4
20260503223030 39 54 23.0 40.0 0.11 1.24 1.24 92 992.4
20260503222514 39 69 24.0 40.0 0.10 1.22 1.22 92 992.5